World > North America > United States > New Jersey

Minotola, New Jersey Regional Weather

Lat: 39.52N, Lon: 74.95W
Wx Zone: NJZ022
Feedback

Minotola, NJ Regional Weather

Expires:201910141500;;697859
ASUS41 KOKX 141406
RWROKX

Regional Weather Roundup
National Weather Service New York NY
1000 AM EDT MON OCT 14 2019

Note: "FAIR" indicates few or no clouds below 12,000 feet with no
significant weather and/or obstructions to visibility.


NJZ001-105-106-008-010-013-015-019>022-104-141500-
New Jersey
  
CITY           SKY/WX    TMP DP  RH WIND       PRES   REMARKS
Newark/Liberty CLOUDY    62  53  72 W5        30.01S                  
Teterboro      CLOUDY    64  52  64 W8        29.99F                  
Caldwell       CLOUDY    62  54  74 VRB3      30.01S                  
Somerville     PTSUNNY   61  53  75 CALM      30.00S                  
Linden         CLOUDY    60  54  78 CALM      30.01S                  
Perth Amboy      N/A     59 N/A N/A W5          N/A                   
Sussex         FAIR      60  51  72 VRB3      30.00F                  
Andover          N/A     60  52  74 MISG      30.01S                  
Trenton        FAIR      61  57  87 CALM      30.01S                  
Millville      PTSUNNY   63  56  78 W5        30.03S                  
Atlantic City  CLOUDY    61  58  90 NW6       30.03  FOG              
Wrightstown    PTSUNNY   63  56  78 CALM      30.02R                  
Toms River     CLOUDY    61  32  33 NW5       30.03S                  
Belmar         CLOUDY    60  58  92 W3        30.03R                  
$$
 

SKY/WX - Weather  TMP - Temperature  DP - Dew Point  RH - Relative Humidity
WIND - Wind Direction/Speed PRES - Barometric Pressure VSB - Visibility
WCI - Wind Chill Index E13G22 Wind - East Wind 13 mph/Gusts of 22 mph